owner,sensor,date,latitude,longitude,vertical_datum,sea_water_practical_salinity,qcFlag 
NERRS,ioos:station:NOAA.NERRS:marscwq:1,2015-08-01T00:00:00Z,27.8383,-97.0503,5.53,37.0,1111122 
NERRS,ioos:station:NOAA.NERRS:marscwq:1,2015-08-01T00:30:00Z,27.8383,-97.0503,5.58,36.9,1111122 
NERRS,ioos:station:NOAA.NERRS:marscwq:1,2015-08-01T01:30:00Z,27.8383,-97.0503,5.52,36.9,1111122 
NERRS,ioos:station:NOAA.NERRS:marscwq:1,2015-08-01T02:30:00Z,27.8383,-97.0503,5.44,36.3,1111122 
NERRS,ioos:station:NOAA.NERRS:marscwq:1,2015-08-01T03:30:00Z,27.8383,-97.0503,5.45,35.9,1111122 
NERRS,ioos:station:NOAA.NERRS:marscwq:1,2015-08-01T04:30:00Z,27.8383,-97.0503,5.5,35.1,1111122 
NERRS,ioos:station:NOAA.NERRS:marscwq:1,2015-08-01T05:30:00Z,27.8383,-97.0503,5.59,35.1,1111122 
NERRS,ioos:station:NOAA.NERRS:marscwq:1,2015-08-01T06:30:00Z,27.8383,-97.0503,5.76,34.5,1111122 
NERRS,ioos:station:NOAA.NERRS:marscwq:1,2015-08-01T08:00:00Z,27.8383,-97.0503,5.86,33.4,1111122 
NERRS,ioos:station:NOAA.NERRS:marscwq:1,2015-08-01T08:30:00Z,27.8383,-97.0503,5.87,34.4,1111122 
NERRS,ioos:station:NOAA.NERRS:marscwq:1,2015-08-01T11:00:00Z,27.8383,-97.0503,5.94,35.3,1111122 
NERRS,ioos:station:NOAA.NERRS:marscwq:1,2015-08-01T11:30:00Z,27.8383,-97.0503,5.91,36.6,1111122 
NERRS,ioos:station:NOAA.NERRS:marscwq:1,2015-08-01T13:30:00Z,27.8383,-97.0503,5.91,36.3,1111122 
NERRS,ioos:station:NOAA.NERRS:marscwq:1,2015-08-01T14:30:00Z,27.8383,-97.0503,5.93,36.2,1111122 
NERRS,ioos:station:NOAA.NERRS:marscwq:1,2015-08-01T15:30:00Z,27.8383,-97.0503,5.95,36.3,1111122 
NERRS,ioos:station:NOAA.NERRS:marscwq:1,2015-08-01T17:30:00Z,27.8383,-97.0503,5.9,36.3,1111122 
NERRS,ioos:station:NOAA.NERRS:marscwq:1,2015-08-01T18:30:00Z,27.8383,-97.0503,5.96,36.6,1111122 
NERRS,ioos:station:NOAA.NERRS:marscwq:1,2015-08-01T19:30:00Z,27.8383,-97.0503,6.04,36.0,1111122 
NERRS,ioos:station:NOAA.NERRS:marscwq:1,2015-08-01T20:30:00Z,27.8383,-97.0503,5.92,36.2,1111122 
NERRS,ioos:station:NOAA.NERRS:marscwq:1,2015-08-01T21:30:00Z,27.8383,-97.0503,5.93,36.1,1111122 
NERRS,ioos:station:NOAA.NERRS:marscwq:1,2015-08-01T22:30:00Z,27.8383,-97.0503,5.84,36.2,1111122 
NERRS,ioos:station:NOAA.NERRS:marscwq:1,2015-08-01T23:30:00Z,27.8383,-97.0503,5.84,36.1,1111122 
NERRS,ioos:station:NOAA.NERRS:marscwq:1,2015-08-02T00:30:00Z,27.8383,-97.0503,5.71,36.4,1111122 
NERRS,ioos:station:NOAA.NERRS:marscwq:1,2015-08-02T01:30:00Z,27.8383,-97.0503,5.64,36.5,1111122 
NERRS,ioos:station:NOAA.NERRS:marscwq:1,2015-08-02T02:30:00Z,27.8383,-97.0503,5.61,36.8,1111122 
NERRS,ioos:station:NOAA.NERRS:marscwq:1,2015-08-02T03:30:00Z,27.8383,-97.0503,5.55,36.8,1111122 
NERRS,ioos:station:NOAA.NERRS:marscwq:1,2015-08-02T04:30:00Z,27.8383,-97.0503,5.57,36.4,1111122 
NERRS,ioos:station:NOAA.NERRS:marscwq:1,2015-08-02T05:30:00Z,27.8383,-97.0503,5.64,36.2,1111122 
NERRS,ioos:station:NOAA.NERRS:marscwq:1,2015-08-02T06:30:00Z,27.8383,-97.0503,5.69,35.9,1111122 
NERRS,ioos:station:NOAA.NERRS:marscwq:1,2015-08-02T08:00:00Z,27.8383,-97.0503,5.85,35.1,1111122 
NERRS,ioos:station:NOAA.NERRS:marscwq:1,2015-08-02T08:30:00Z,27.8383,-97.0503,5.9,34.8,1111122 
NERRS,ioos:station:NOAA.NERRS:marscwq:1,2015-08-02T09:30:00Z,27.8383,-97.0503,5.96,34.9,1111122 
NERRS,ioos:station:NOAA.NERRS:marscwq:1,2015-08-02T10:30:00Z,27.8383,-97.0503,5.97,36.1,1111122 
NERRS,ioos:station:NOAA.NERRS:marscwq:1,2015-08-02T11:30:00Z,27.8383,-97.0503,5.96,35.7,1111122 
NERRS,ioos:station:NOAA.NERRS:marscwq:1,2015-08-02T12:30:00Z,27.8383,-97.0503,5.97,36.4,1111122 
NERRS,ioos:station:NOAA.NERRS:marscwq:1,2015-08-03T04:30:00Z,27.8383,-97.0503,5.65,36.9,1111122 
NERRS,ioos:station:NOAA.NERRS:marscwq:1,2015-08-03T05:30:00Z,27.8383,-97.0503,5.69,36.7,1111122 
NERRS,ioos:station:NOAA.NERRS:marscwq:1,2015-08-03T06:30:00Z,27.8383,-97.0503,5.71,36.6,1111122 
NERRS,ioos:station:NOAA.NERRS:marscwq:1,2015-08-04T04:30:00Z,27.8383,-97.0503,5.72,36.9,1111122 
NERRS,ioos:station:NOAA.NERRS:marscwq:1,2015-08-04T05:30:00Z,27.8383,-97.0503,5.67,36.9,1111122 
NERRS,ioos:station:NOAA.NERRS:marscwq:1,2015-08-04T06:30:00Z,27.8383,-97.0503,5.67,36.7,1111122 
NERRS,ioos:station:NOAA.NERRS:marscwq:1,2015-08-04T08:00:00Z,27.8383,-97.0503,5.74,36.2,1111122 
NERRS,ioos:station:NOAA.NERRS:marscwq:1,2015-08-04T08:30:00Z,27.8383,-97.0503,5.78,35.9,1111122 
NERRS,ioos:station:NOAA.NERRS:marscwq:1,2015-08-04T09:30:00Z,27.8383,-97.0503,5.84,35.2,1111122 
NERRS,ioos:station:NOAA.NERRS:marscwq:1,2015-08-04T10:30:00Z,27.8383,-97.0503,5.89,34.7,1111122 
NERRS,ioos:station:NOAA.NERRS:marscwq:1,2015-08-04T11:30:00Z,27.8383,-97.0503,5.9,35.3,1111122 
NERRS,ioos:station:NOAA.NERRS:marscwq:1,2015-08-04T12:30:00Z,27.8383,-97.0503,5.9,35.3,1111122 
NERRS,ioos:station:NOAA.NERRS:marscwq:1,2015-08-04T13:30:00Z,27.8383,-97.0503,5.84,37.0,1111122 
NERRS,ioos:station:NOAA.NERRS:marscwq:1,2015-08-04T14:30:00Z,27.8383,-97.0503,5.82,37.1,1111122 
NERRS,ioos:station:NOAA.NERRS:marscwq:1,2015-08-04T15:30:00Z,27.8383,-97.0503,5.82,37.1,1111122 
NERRS,ioos:station:NOAA.NERRS:marscwq:1,2015-08-04T20:30:00Z,27.8383,-97.0503,5.76,35.9,1111122 
NERRS,ioos:station:NOAA.NERRS:marscwq:1,2015-08-04T21:30:00Z,27.8383,-97.0503,5.82,35.8,1111122 
NERRS,ioos:station:NOAA.NERRS:marscwq:1,2015-08-04T23:30:00Z,27.8383,-97.0503,5.86,35.8,1111122 
NERRS,ioos:station:NOAA.NERRS:marscwq:1,2015-08-05T00:30:00Z,27.8383,-97.0503,5.85,35.7,1111122 
NERRS,ioos:station:NOAA.NERRS:marscwq:1,2015-08-05T01:30:00Z,27.8383,-97.0503,5.86,36.9,1111122 
NERRS,ioos:station:NOAA.NERRS:marscwq:1,2015-08-05T02:30:00Z,27.8383,-97.0503,5.84,37.1,1111122 
NERRS,ioos:station:NOAA.NERRS:marscwq:1,2015-08-05T03:30:00Z,27.8383,-97.0503,5.8,37.1,1111122 
NERRS,ioos:station:NOAA.NERRS:marscwq:1,2015-08-05T04:30:00Z,27.8383,-97.0503,5.8,37.1,1111122 
NERRS,ioos:station:NOAA.NERRS:marscwq:1,2015-08-05T05:30:00Z,27.8383,-97.0503,5.76,37.1,1111122 
NERRS,ioos:station:NOAA.NERRS:marscwq:1,2015-08-05T06:30:00Z,27.8383,-97.0503,5.74,37.0,1111122 
NERRS,ioos:station:NOAA.NERRS:marscwq:1,2015-08-05T07:30:00Z,27.8383,-97.0503,5.74,36.8,1111122 
NERRS,ioos:station:NOAA.NERRS:marscwq:1,2015-08-05T08:30:00Z,27.8383,-97.0503,5.77,35.9,1111122 
NERRS,ioos:station:NOAA.NERRS:marscwq:1,2015-08-05T09:30:00Z,27.8383,-97.0503,5.81,35.3,1111122 
NERRS,ioos:station:NOAA.NERRS:marscwq:1,2015-08-05T10:30:00Z,27.8383,-97.0503,5.86,35.1,1111122 
NERRS,ioos:station:NOAA.NERRS:marscwq:1,2015-08-05T11:30:00Z,27.8383,-97.0503,5.87,34.6,1111122 
NERRS,ioos:station:NOAA.NERRS:marscwq:1,2015-08-05T13:00:00Z,27.8383,-97.0503,5.87,35.7,1111122 
NERRS,ioos:station:NOAA.NERRS:marscwq:1,2015-08-05T13:30:00Z,27.8383,-97.0503,5.87,35.8,1111122 
NERRS,ioos:station:NOAA.NERRS:marscwq:1,2015-08-05T14:30:00Z,27.8383,-97.0503,5.83,36.8,1111122 
NERRS,ioos:station:NOAA.NERRS:marscwq:1,2015-08-05T16:00:00Z,27.8383,-97.0503,5.76,36.7,1111122 
NERRS,ioos:station:NOAA.NERRS:marscwq:1,2015-08-05T16:30:00Z,27.8383,-97.0503,5.74,36.1,1111122 
NERRS,ioos:station:NOAA.NERRS:marscwq:1,2015-08-05T18:30:00Z,27.8383,-97.0503,5.66,35.5,1111122 
NERRS,ioos:station:NOAA.NERRS:marscwq:1,2015-08-05T19:30:00Z,27.8383,-97.0503,5.63,34.9,1111122 
NERRS,ioos:station:NOAA.NERRS:marscwq:1,2015-08-05T20:30:00Z,27.8383,-97.0503,5.67,35.0,1111122 
NERRS,ioos:station:NOAA.NERRS:marscwq:1,2015-08-05T21:30:00Z,27.8383,-97.0503,5.72,34.8,1111122 
NERRS,ioos:station:NOAA.NERRS:marscwq:1,2015-08-05T22:30:00Z,27.8383,-97.0503,5.75,34.4,1111122 
NERRS,ioos:station:NOAA.NERRS:marscwq:1,2015-08-05T23:30:00Z,27.8383,-97.0503,5.8,33.8,1111122 
NERRS,ioos:station:NOAA.NERRS:marscwq:1,2015-08-06T00:30:00Z,27.8383,-97.0503,5.8,34.7,1111122 
NERRS,ioos:station:NOAA.NERRS:marscwq:1,2015-08-06T01:30:00Z,27.8383,-97.0503,5.83,35.0,1111122 
NERRS,ioos:station:NOAA.NERRS:marscwq:1,2015-08-06T02:30:00Z,27.8383,-97.0503,5.8,37.0,1111122 
NERRS,ioos:station:NOAA.NERRS:marscwq:1,2015-08-06T03:30:00Z,27.8383,-97.0503,5.81,37.3,1111122 
NERRS,ioos:station:NOAA.NERRS:marscwq:1,2015-08-06T04:30:00Z,27.8383,-97.0503,5.83,37.3,1111122 
NERRS,ioos:station:NOAA.NERRS:marscwq:1,2015-08-06T05:30:00Z,27.8383,-97.0503,5.81,37.3,1111122 
NERRS,ioos:station:NOAA.NERRS:marscwq:1,2015-08-06T06:30:00Z,27.8383,-97.0503,5.78,37.3,1111122 
NERRS,ioos:station:NOAA.NERRS:marscwq:1,2015-08-06T08:30:00Z,27.8383,-97.0503,5.75,37.3,1111122 
NERRS,ioos:station:NOAA.NERRS:marscwq:1,2015-08-06T09:30:00Z,27.8383,-97.0503,5.77,37.3,1111122 
NERRS,ioos:station:NOAA.NERRS:marscwq:1,2015-08-06T11:00:00Z,27.8383,-97.0503,5.82,37.3,1111122 
NERRS,ioos:station:NOAA.NERRS:marscwq:1,2015-08-06T12:30:00Z,27.8383,-97.0503,5.83,37.3,1111122 
NERRS,ioos:station:NOAA.NERRS:marscwq:1,2015-08-06T13:30:00Z,27.8383,-97.0503,5.8,37.4,1111122 
NERRS,ioos:station:NOAA.NERRS:marscwq:1,2015-08-06T14:30:00Z,27.8383,-97.0503,5.82,37.4,1111122 
NERRS,ioos:station:NOAA.NERRS:marscwq:1,2015-08-06T15:30:00Z,27.8383,-97.0503,5.73,36.7,1111122 
NERRS,ioos:station:NOAA.NERRS:marscwq:1,2015-08-06T16:30:00Z,27.8383,-97.0503,5.74,36.7,1111122 
NERRS,ioos:station:NOAA.NERRS:marscwq:1,2015-08-06T17:30:00Z,27.8383,-97.0503,5.67,36.1,1111122 
NERRS,ioos:station:NOAA.NERRS:marscwq:1,2015-08-06T18:30:00Z,27.8383,-97.0503,5.55,35.7,1111122 
NERRS,ioos:station:NOAA.NERRS:marscwq:1,2015-08-06T20:00:00Z,27.8383,-97.0503,5.56,35.6,1111122 
NERRS,ioos:station:NOAA.NERRS:marscwq:1,2015-08-06T21:00:00Z,27.8383,-97.0503,5.59,34.9,1111122 
NERRS,ioos:station:NOAA.NERRS:marscwq:1,2015-08-06T23:00:00Z,27.8383,-97.0503,5.65,34.2,1111122 
NERRS,ioos:station:NOAA.NERRS:marscwq:1,2015-08-06T23:30:00Z,27.8383,-97.0503,5.69,33.9,1111122 
NERRS,ioos:station:NOAA.NERRS:marscwq:1,2015-08-07T00:30:00Z,27.8383,-97.0503,5.73,33.4,1111122 
NERRS,ioos:station:NOAA.NERRS:marscwq:1,2015-08-07T06:30:00Z,27.8383,-97.0503,5.82,36.8,1111122 
NERRS,ioos:station:NOAA.NERRS:marscwq:1,2015-08-07T08:00:00Z,27.8383,-97.0503,5.84,37.3,1111122 
NERRS,ioos:station:NOAA.NERRS:marscwq:1,2015-08-07T08:30:00Z,27.8383,-97.0503,5.84,36.9,1111122 
NERRS,ioos:station:NOAA.NERRS:marscwq:1,2015-08-07T11:00:00Z,27.8383,-97.0503,5.82,37.4,1111122 
NERRS,ioos:station:NOAA.NERRS:marscwq:1,2015-08-07T11:30:00Z,27.8383,-97.0503,5.85,37.3,1111122 
NERRS,ioos:station:NOAA.NERRS:marscwq:1,2015-08-07T12:30:00Z,27.8383,-97.0503,5.87,36.8,1111122 
NERRS,ioos:station:NOAA.NERRS:marscwq:1,2015-08-07T13:30:00Z,27.8383,-97.0503,5.88,36.8,1111122 
NERRS,ioos:station:NOAA.NERRS:marscwq:1,2015-08-07T14:30:00Z,27.8383,-97.0503,5.85,37.3,1111122 
NERRS,ioos:station:NOAA.NERRS:marscwq:1,2015-08-07T15:30:00Z,27.8383,-97.0503,5.78,37.8,1111122 
NERRS,ioos:station:NOAA.NERRS:marscwq:1,2015-08-07T16:30:00Z,27.8383,-97.0503,5.76,35.8,1111122 
NERRS,ioos:station:NOAA.NERRS:marscwq:1,2015-08-07T17:30:00Z,27.8383,-97.0503,5.68,36.7,1111122 
NERRS,ioos:station:NOAA.NERRS:marscwq:1,2015-08-07T18:30:00Z,27.8383,-97.0503,5.62,36.7,1111122 
NERRS,ioos:station:NOAA.NERRS:marscwq:1,2015-08-07T19:30:00Z,27.8383,-97.0503,5.53,37.1,1111122 
NERRS,ioos:station:NOAA.NERRS:marscwq:1,2015-08-07T20:30:00Z,27.8383,-97.0503,5.48,36.6,1111122 
NERRS,ioos:station:NOAA.NERRS:marscwq:1,2015-08-07T21:30:00Z,27.8383,-97.0503,5.48,35.8,1111122 
NERRS,ioos:station:NOAA.NERRS:marscwq:1,2015-08-07T22:30:00Z,27.8383,-97.0503,5.49,35.8,1111122 
NERRS,ioos:station:NOAA.NERRS:marscwq:1,2015-08-07T23:30:00Z,27.8383,-97.0503,5.52,35.3,1111122 
NERRS,ioos:station:NOAA.NERRS:marscwq:1,2015-08-08T00:30:00Z,27.8383,-97.0503,5.64,34.6,1111122 
NERRS,ioos:station:NOAA.NERRS:marscwq:1,2015-08-08T01:30:00Z,27.8383,-97.0503,5.7,33.9,1111122 
NERRS,ioos:station:NOAA.NERRS:marscwq:1,2015-08-08T02:30:00Z,27.8383,-97.0503,5.76,33.4,1111122 
NERRS,ioos:station:NOAA.NERRS:marscwq:1,2015-08-08T03:30:00Z,27.8383,-97.0503,5.78,34.6,1111122 
NERRS,ioos:station:NOAA.NERRS:marscwq:1,2015-08-08T04:30:00Z,27.8383,-97.0503,5.82,34.8,1111122 
NERRS,ioos:station:NOAA.NERRS:marscwq:1,2015-08-08T06:00:00Z,27.8383,-97.0503,5.83,37.0,1111122 
NERRS,ioos:station:NOAA.NERRS:marscwq:1,2015-08-08T06:30:00Z,27.8383,-97.0503,5.8,36.9,1111122 
NERRS,ioos:station:NOAA.NERRS:marscwq:1,2015-08-08T07:30:00Z,27.8383,-97.0503,5.83,36.8,1111122 
NERRS,ioos:station:NOAA.NERRS:marscwq:1,2015-08-08T08:30:00Z,27.8383,-97.0503,5.82,36.9,1111122 
NERRS,ioos:station:NOAA.NERRS:marscwq:1,2015-08-08T09:30:00Z,27.8383,-97.0503,5.81,37.3,1111122 
NERRS,ioos:station:NOAA.NERRS:marscwq:1,2015-08-08T10:30:00Z,27.8383,-97.0503,5.79,37.3,1111122 
NERRS,ioos:station:NOAA.NERRS:marscwq:1,2015-08-08T11:30:00Z,27.8383,-97.0503,5.79,37.3,1111122 
NERRS,ioos:station:NOAA.NERRS:marscwq:1,2015-08-08T12:30:00Z,27.8383,-97.0503,5.8,37.3,1111122 
NERRS,ioos:station:NOAA.NERRS:marscwq:1,2015-08-08T13:30:00Z,27.8383,-97.0503,5.82,37.3,1111122 
NERRS,ioos:station:NOAA.NERRS:marscwq:1,2015-08-08T14:30:00Z,27.8383,-97.0503,5.83,37.3,1111122 
NERRS,ioos:station:NOAA.NERRS:marscwq:1,2015-08-08T15:30:00Z,27.8383,-97.0503,5.75,37.3,1111122 
NERRS,ioos:station:NOAA.NERRS:marscwq:1,2015-08-08T16:30:00Z,27.8383,-97.0503,5.79,37.3,1111122 
NERRS,ioos:station:NOAA.NERRS:marscwq:1,2015-08-08T17:30:00Z,27.8383,-97.0503,5.71,37.3,1111122 
NERRS,ioos:station:NOAA.NERRS:marscwq:1,2015-08-08T18:30:00Z,27.8383,-97.0503,5.61,37.3,1111122 
NERRS,ioos:station:NOAA.NERRS:marscwq:1,2015-08-08T19:30:00Z,27.8383,-97.0503,5.52,37.2,1111122 
NERRS,ioos:station:NOAA.NERRS:marscwq:1,2015-08-08T20:30:00Z,27.8383,-97.0503,5.48,37.0,1111122 
NERRS,ioos:station:NOAA.NERRS:marscwq:1,2015-08-08T21:30:00Z,27.8383,-97.0503,5.47,36.3,1111122 
NERRS,ioos:station:NOAA.NERRS:marscwq:1,2015-08-08T22:30:00Z,27.8383,-97.0503,5.46,35.9,1111122 
NERRS,ioos:station:NOAA.NERRS:marscwq:1,2015-08-08T23:30:00Z,27.8383,-97.0503,5.44,35.7,1111122 
NERRS,ioos:station:NOAA.NERRS:marscwq:1,2015-08-09T00:30:00Z,27.8383,-97.0503,5.52,35.2,1111122 
NERRS,ioos:station:NOAA.NERRS:marscwq:1,2015-08-09T01:30:00Z,27.8383,-97.0503,5.62,34.4,1111122 
NERRS,ioos:station:NOAA.NERRS:marscwq:1,2015-08-09T03:30:00Z,27.8383,-97.0503,5.8,33.0,1111122 
NERRS,ioos:station:NOAA.NERRS:marscwq:1,2015-08-09T04:30:00Z,27.8383,-97.0503,5.82,35.3,1111122 
NERRS,ioos:station:NOAA.NERRS:marscwq:1,2015-08-09T05:30:00Z,27.8383,-97.0503,5.82,36.9,1111122 
NERRS,ioos:station:NOAA.NERRS:marscwq:1,2015-08-09T06:30:00Z,27.8383,-97.0503,5.87,37.2,1111122 
NERRS,ioos:station:NOAA.NERRS:marscwq:1,2015-08-09T07:30:00Z,27.8383,-97.0503,5.84,37.2,1111122 
NERRS,ioos:station:NOAA.NERRS:marscwq:1,2015-08-09T08:30:00Z,27.8383,-97.0503,5.85,37.2,1111122 
NERRS,ioos:station:NOAA.NERRS:marscwq:1,2015-08-09T09:30:00Z,27.8383,-97.0503,5.84,37.2,1111122 
NERRS,ioos:station:NOAA.NERRS:marscwq:1,2015-08-09T10:30:00Z,27.8383,-97.0503,5.8,37.2,1111122 
NERRS,ioos:station:NOAA.NERRS:marscwq:1,2015-08-09T11:30:00Z,27.8383,-97.0503,5.84,37.2,1111122 
NERRS,ioos:station:NOAA.NERRS:marscwq:1,2015-08-09T12:30:00Z,27.8383,-97.0503,5.84,37.2,1111122 
NERRS,ioos:station:NOAA.NERRS:marscwq:1,2015-08-09T13:30:00Z,27.8383,-97.0503,5.84,37.2,1111122 
NERRS,ioos:station:NOAA.NERRS:marscwq:1,2015-08-09T14:30:00Z,27.8383,-97.0503,5.82,37.2,1111122 
NERRS,ioos:station:NOAA.NERRS:marscwq:1,2015-08-09T15:30:00Z,27.8383,-97.0503,5.82,37.2,1111122 
NERRS,ioos:station:NOAA.NERRS:marscwq:1,2015-08-09T16:30:00Z,27.8383,-97.0503,5.79,37.2,1111122 
NERRS,ioos:station:NOAA.NERRS:marscwq:1,2015-08-10T01:30:00Z,27.8383,-97.0503,5.53,35.3,1111122 
NERRS,ioos:station:NOAA.NERRS:marscwq:1,2015-08-10T04:30:00Z,27.8383,-97.0503,5.76,34.7,1111122 
NERRS,ioos:station:NOAA.NERRS:marscwq:1,2015-08-10T05:30:00Z,27.8383,-97.0503,5.83,34.4,1111122 
NERRS,ioos:station:NOAA.NERRS:marscwq:1,2015-08-10T06:30:00Z,27.8383,-97.0503,5.84,36.8,1111122 
NERRS,ioos:station:NOAA.NERRS:marscwq:1,2015-08-10T07:30:00Z,27.8383,-97.0503,5.84,37.1,1111122 
NERRS,ioos:station:NOAA.NERRS:marscwq:1,2015-08-10T08:30:00Z,27.8383,-97.0503,5.86,37.1,1111122 
NERRS,ioos:station:NOAA.NERRS:marscwq:1,2015-08-10T09:30:00Z,27.8383,-97.0503,5.86,37.1,1111122 
NERRS,ioos:station:NOAA.NERRS:marscwq:1,2015-08-10T10:30:00Z,27.8383,-97.0503,5.87,37.1,1111122 
NERRS,ioos:station:NOAA.NERRS:marscwq:1,2015-08-10T11:30:00Z,27.8383,-97.0503,5.85,37.1,1111122 
NERRS,ioos:station:NOAA.NERRS:marscwq:1,2015-08-10T12:30:00Z,27.8383,-97.0503,5.84,37.1,1111122 
NERRS,ioos:station:NOAA.NERRS:marscwq:1,2015-08-10T13:30:00Z,27.8383,-97.0503,5.84,36.9,1111122 
NERRS,ioos:station:NOAA.NERRS:marscwq:1,2015-08-10T14:30:00Z,27.8383,-97.0503,5.86,37.2,1111122 
NERRS,ioos:station:NOAA.NERRS:marscwq:1,2015-08-10T15:30:00Z,27.8383,-97.0503,5.85,37.2,1111122 
NERRS,ioos:station:NOAA.NERRS:marscwq:1,2015-08-10T16:30:00Z,27.8383,-97.0503,5.85,37.2,1111122 
NERRS,ioos:station:NOAA.NERRS:marscwq:1,2015-08-10T17:30:00Z,27.8383,-97.0503,5.81,37.2,1111122 
NERRS,ioos:station:NOAA.NERRS:marscwq:1,2015-08-10T18:30:00Z,27.8383,-97.0503,5.76,37.1,1111122 
NERRS,ioos:station:NOAA.NERRS:marscwq:1,2015-08-10T19:30:00Z,27.8383,-97.0503,5.69,37.1,1111122 
NERRS,ioos:station:NOAA.NERRS:marscwq:1,2015-08-11T05:30:00Z,27.8383,-97.0503,5.8,35.1,1111122 
NERRS,ioos:station:NOAA.NERRS:marscwq:1,2015-08-11T06:30:00Z,27.8383,-97.0503,5.84,35.2,1111122 
NERRS,ioos:station:NOAA.NERRS:marscwq:1,2015-08-11T08:30:00Z,27.8383,-97.0503,5.84,37.2,1111122 
NERRS,ioos:station:NOAA.NERRS:marscwq:1,2015-08-11T09:30:00Z,27.8383,-97.0503,5.86,37.2,1111122 
NERRS,ioos:station:NOAA.NERRS:marscwq:1,2015-08-11T10:30:00Z,27.8383,-97.0503,5.86,37.2,1111122 
NERRS,ioos:station:NOAA.NERRS:marscwq:1,2015-08-11T11:30:00Z,27.8383,-97.0503,5.87,37.2,1111122 
NERRS,ioos:station:NOAA.NERRS:marscwq:1,2015-08-11T12:30:00Z,27.8383,-97.0503,5.86,37.1,1111122 
NERRS,ioos:station:NOAA.NERRS:marscwq:1,2015-08-12T02:30:00Z,27.8383,-97.0503,5.59,36.0,1111122 
NERRS,ioos:station:NOAA.NERRS:marscwq:1,2015-08-12T03:30:00Z,27.8383,-97.0503,5.65,35.6,1111122 
NERRS,ioos:station:NOAA.NERRS:marscwq:1,2015-08-12T05:30:00Z,27.8383,-97.0503,5.87,34.3,1111122 
NERRS,ioos:station:NOAA.NERRS:marscwq:1,2015-08-12T08:30:00Z,27.8383,-97.0503,5.94,36.6,1111122 
NERRS,ioos:station:NOAA.NERRS:marscwq:1,2015-08-12T09:30:00Z,27.8383,-97.0503,5.87,37.3,1111122 
NERRS,ioos:station:NOAA.NERRS:marscwq:1,2015-08-12T10:30:00Z,27.8383,-97.0503,5.91,37.2,1111122 
NERRS,ioos:station:NOAA.NERRS:marscwq:1,2015-08-12T11:30:00Z,27.8383,-97.0503,5.95,37.3,1111122 
NERRS,ioos:station:NOAA.NERRS:marscwq:1,2015-08-13T08:00:00Z,27.8383,-97.0503,5.9,35.7,1111122 
NERRS,ioos:station:NOAA.NERRS:marscwq:1,2015-08-13T08:30:00Z,27.8383,-97.0503,5.92,35.9,1111122 
NERRS,ioos:station:NOAA.NERRS:marscwq:1,2015-08-13T09:30:00Z,27.8383,-97.0503,5.9,37.2,1111122 
NERRS,ioos:station:NOAA.NERRS:marscwq:1,2015-08-13T10:30:00Z,27.8383,-97.0503,5.9,37.4,1111122 
NERRS,ioos:station:NOAA.NERRS:marscwq:1,2015-08-13T11:30:00Z,27.8383,-97.0503,5.88,37.4,1111122 
NERRS,ioos:station:NOAA.NERRS:marscwq:1,2015-08-13T12:30:00Z,27.8383,-97.0503,5.89,36.8,1111122 
NERRS,ioos:station:NOAA.NERRS:marscwq:1,2015-08-15T10:30:00Z,27.8383,-97.0503,5.92,37.6,1111122 
NERRS,ioos:station:NOAA.NERRS:marscwq:1,2015-08-18T23:30:00Z,27.8383,-97.0503,5.86,37.7,1111122 
NERRS,ioos:station:NOAA.NERRS:marscwq:1,2015-08-19T10:30:00Z,27.8383,-97.0503,5.94,37.8,1111122 
NERRS,ioos:station:NOAA.NERRS:marscwq:1,2015-08-19T21:30:00Z,27.8383,-97.0503,5.79,35.3,1111122 
NERRS,ioos:station:NOAA.NERRS:marscwq:1,2015-08-19T22:30:00Z,27.8383,-97.0503,5.84,35.3,1111122 
NERRS,ioos:station:NOAA.NERRS:marscwq:1,2015-08-19T23:30:00Z,27.8383,-97.0503,5.83,35.4,1111122 
NERRS,ioos:station:NOAA.NERRS:marscwq:1,2015-08-20T00:30:00Z,27.8383,-97.0503,5.88,36.4,1111122 
NERRS,ioos:station:NOAA.NERRS:marscwq:1,2015-08-20T01:30:00Z,27.8383,-97.0503,5.86,36.7,1111122 
NERRS,ioos:station:NOAA.NERRS:marscwq:1,2015-08-20T02:30:00Z,27.8383,-97.0503,5.87,37.2,1111122 
NERRS,ioos:station:NOAA.NERRS:marscwq:1,2015-08-20T03:30:00Z,27.8383,-97.0503,5.86,37.7,1111122 
NERRS,ioos:station:NOAA.NERRS:marscwq:1,2015-08-20T04:30:00Z,27.8383,-97.0503,5.83,37.9,1111122 
NERRS,ioos:station:NOAA.NERRS:marscwq:1,2015-08-20T05:30:00Z,27.8383,-97.0503,5.94,37.9,1111122 
NERRS,ioos:station:NOAA.NERRS:marscwq:1,2015-08-20T06:30:00Z,27.8383,-97.0503,5.92,37.9,1111122 
NERRS,ioos:station:NOAA.NERRS:marscwq:1,2015-08-20T08:00:00Z,27.8383,-97.0503,5.86,37.9,1111122 
NERRS,ioos:station:NOAA.NERRS:marscwq:1,2015-08-20T08:30:00Z,27.8383,-97.0503,5.82,37.9,1111122 
NERRS,ioos:station:NOAA.NERRS:marscwq:1,2015-08-20T09:30:00Z,27.8383,-97.0503,5.91,37.9,1111122 
NERRS,ioos:station:NOAA.NERRS:marscwq:1,2015-08-20T10:30:00Z,27.8383,-97.0503,5.94,37.9,1111122 
NERRS,ioos:station:NOAA.NERRS:marscwq:1,2015-08-20T11:30:00Z,27.8383,-97.0503,5.99,38.0,1111122 
NERRS,ioos:station:NOAA.NERRS:marscwq:1,2015-08-20T12:30:00Z,27.8383,-97.0503,6.02,38.0,1111122 
NERRS,ioos:station:NOAA.NERRS:marscwq:1,2015-08-20T13:30:00Z,27.8383,-97.0503,5.92,38.0,1111122 
NERRS,ioos:station:NOAA.NERRS:marscwq:1,2015-08-20T14:30:00Z,27.8383,-97.0503,5.95,37.5,1111122 
NERRS,ioos:station:NOAA.NERRS:marscwq:1,2015-08-20T16:30:00Z,27.8383,-97.0503,5.9,37.7,1111122 
NERRS,ioos:station:NOAA.NERRS:marscwq:1,2015-08-20T17:30:00Z,27.8383,-97.0503,5.84,37.9,1111122 
NERRS,ioos:station:NOAA.NERRS:marscwq:1,2015-08-20T20:30:00Z,27.8383,-97.0503,5.89,37.5,1111122 
NERRS,ioos:station:NOAA.NERRS:marscwq:1,2015-08-20T21:30:00Z,27.8383,-97.0503,6.01,36.4,1111122 
NERRS,ioos:station:NOAA.NERRS:marscwq:1,2015-08-20T23:00:00Z,27.8383,-97.0503,5.89,36.6,1111122 
NERRS,ioos:station:NOAA.NERRS:marscwq:1,2015-08-20T23:30:00Z,27.8383,-97.0503,5.79,36.5,1111122 
NERRS,ioos:station:NOAA.NERRS:marscwq:1,2015-08-21T03:30:00Z,27.8383,-97.0503,5.92,37.7,1111122 
NERRS,ioos:station:NOAA.NERRS:marscwq:1,2015-08-21T08:00:00Z,27.8383,-97.0503,6.04,37.7,1111122 
NERRS,ioos:station:NOAA.NERRS:marscwq:1,2015-08-21T08:30:00Z,27.8383,-97.0503,6.05,37.8,1111122 
NERRS,ioos:station:NOAA.NERRS:marscwq:1,2015-08-21T10:30:00Z,27.8383,-97.0503,6.01,37.8,1111122 
NERRS,ioos:station:NOAA.NERRS:marscwq:1,2015-08-22T03:30:00Z,27.8383,-97.0503,5.97,35.5,1111122 
NERRS,ioos:station:NOAA.NERRS:marscwq:1,2015-08-22T04:30:00Z,27.8383,-97.0503,5.89,36.3,1111122 
NERRS,ioos:station:NOAA.NERRS:marscwq:1,2015-08-22T22:30:00Z,27.8383,-97.0503,5.68,35.6,1111122 
NERRS,ioos:station:NOAA.NERRS:marscwq:1,2015-08-22T23:30:00Z,27.8383,-97.0503,5.74,35.5,1111122 
NERRS,ioos:station:NOAA.NERRS:marscwq:1,2015-08-23T00:30:00Z,27.8383,-97.0503,5.79,35.3,1111122 
NERRS,ioos:station:NOAA.NERRS:marscwq:1,2015-08-23T01:30:00Z,27.8383,-97.0503,5.86,35.0,1111122 
NERRS,ioos:station:NOAA.NERRS:marscwq:1,2015-08-23T02:30:00Z,27.8383,-97.0503,5.92,34.6,1111122 
NERRS,ioos:station:NOAA.NERRS:marscwq:1,2015-08-23T03:30:00Z,27.8383,-97.0503,5.95,34.7,1111122 
NERRS,ioos:station:NOAA.NERRS:marscwq:1,2015-08-23T04:30:00Z,27.8383,-97.0503,5.93,36.0,1111122 
NERRS,ioos:station:NOAA.NERRS:marscwq:1,2015-08-23T05:30:00Z,27.8383,-97.0503,5.92,37.0,1111122 
NERRS,ioos:station:NOAA.NERRS:marscwq:1,2015-08-23T06:30:00Z,27.8383,-97.0503,5.95,37.6,1111122 
NERRS,ioos:station:NOAA.NERRS:marscwq:1,2015-08-23T08:00:00Z,27.8383,-97.0503,5.94,37.7,1111122 
NERRS,ioos:station:NOAA.NERRS:marscwq:1,2015-08-23T08:30:00Z,27.8383,-97.0503,5.93,37.7,1111122 
NERRS,ioos:station:NOAA.NERRS:marscwq:1,2015-08-23T09:30:00Z,27.8383,-97.0503,5.96,37.7,1111122 
NERRS,ioos:station:NOAA.NERRS:marscwq:1,2015-08-23T11:30:00Z,27.8383,-97.0503,5.97,37.7,1111122 
NERRS,ioos:station:NOAA.NERRS:marscwq:1,2015-08-23T12:30:00Z,27.8383,-97.0503,5.97,37.4,1111122 
NERRS,ioos:station:NOAA.NERRS:marscwq:1,2015-08-23T20:30:00Z,27.8383,-97.0503,5.65,36.6,1111122 
NERRS,ioos:station:NOAA.NERRS:marscwq:1,2015-08-23T21:30:00Z,27.8383,-97.0503,5.61,36.0,1111122 
NERRS,ioos:station:NOAA.NERRS:marscwq:1,2015-08-23T22:30:00Z,27.8383,-97.0503,5.66,34.8,1111122 
NERRS,ioos:station:NOAA.NERRS:marscwq:1,2015-08-23T23:30:00Z,27.8383,-97.0503,5.69,35.2,1111122 
NERRS,ioos:station:NOAA.NERRS:marscwq:1,2015-08-24T02:30:00Z,27.8383,-97.0503,5.91,35.1,1111122 
NERRS,ioos:station:NOAA.NERRS:marscwq:1,2015-08-24T03:30:00Z,27.8383,-97.0503,5.9,34.8,1111122 
NERRS,ioos:station:NOAA.NERRS:marscwq:1,2015-08-24T05:30:00Z,27.8383,-97.0503,5.98,36.7,1111122 